Terminal Aerodrome Forecast
Issued by NWS Boise, ID

Home | Current Version | Previous Version | Text Only | Print | Product List | Glossary On
Versions: 1 2 3 4 5 6 7 8 9 10 11 12 13 14 15 16 17 18 19 20 21 22 23 24 25 26 27 28
000
FTUS45 KBOI 051140
TAFBNO
TAF
KBNO 051140Z 0512/0612 20007KT P6SM BKN200
     FM052300 24013KT P6SM VCTS FEW070CB BKN100
     FM060500 27007KT P6SM BKN120=

USA.gov is the U.S. government's official web portal to all federal, state and local government web resources and services.